Barrow, AK

6:15 AM AKDT on June 25, 2018 (GMT -0800)
Wiley Post-Will Rogers Memorial

Weather History for PABR - January, 2017

Change the Weather History Date:

Friday, January 13, 2017

  Actual Average Record
Temperature  
Mean Temperature -8 °F -13 °F  
Max Temperature -3 °F -7 °F 27 °F (1962)
Min Temperature -13 °F -19 °F -46 °F (1951)
Degree Days  
Heating Degree Days 73 78  
Month to date heating degree days 665 1007  
Since 1 July heating degree days 7624 9216  
Cooling Degree Days 0 0  
Month to date cooling degree days 0 0  
Year to date cooling degree days 0 0  
Moisture  
Dew Point -14 °F    
Average Humidity 75    
Maximum Humidity 82    
Minimum Humidity 71    
Precipitation  
Precipitation T in 0.01 in 0.11 in (1935)
Month to date precipitation 0.46 0.06  
Year to date precipitation 0.46 0.06  
Snow  
Snow T in 0.10 in 1.90 in (1935)
Month to date snowfall 4.2 1.1  
Since 1 July snowfall 21.5 24.9  
Snow Depth 6.00 in    
Sea Level Pressure  
Sea Level Pressure 30.01 in    
Wind  
Wind Speed 10 mph (NE)    
Max Wind Speed 16 mph    
Max Gust Speed -    
Visibility 8 miles    
Events Rain , Snow    
T = Trace of Precipitation, MM = Missing Value Source: NWS Daily Summary

Daily Weather History Graph

Daily Weather History Graph

Search for Another Location

Airport or City:

Astronomy

Dec. 31, 1969 Rise Set
Actual Time Sun does not set Sun does not set
Civil Twilight 11:09 AM AKST 4:03 PM AKST
Nautical Twilight 9:24 AM AKST 5:47 PM AKST
Astronomical Twilight 8:03 AM AKST 7:09 PM AKST
Moon 5:43 PM AKST (1/13) 12:22 PM AKST (1/13)
Length of Visible Light 4h 53m
Length of Day
0h 00m
Full, 97% of the Moon is Illuminated
Jan 13
Full
Jan 19
Last Quarter
Jan 27
New
Feb 3
First Quarter
Feb 10
Full

Hourly Weather History & Observations

Time (AKST) Temp. Windchill Dew Point Humidity Pressure Visibility Wind Dir Wind Speed Gust Speed Precip Events Conditions
12:53 AM -2.9 °F -13.3 °F -8.0 °F 79% 29.94 in 7.0 mi North 4.6 mph - N/A   Clear
1:00 AM -2.9 °F -15.0 °F -8.0 °F 79% 29.93 in 10.0 mi North 5.8 mph - N/A   Scattered Clouds
1:53 AM -4.0 °F -17.8 °F -9.0 °F 79% 29.94 in 10.0 mi NNE 6.9 mph - N/A   Clear
2:53 AM -11.9 °F -29.9 °F -17.0 °F 78% 29.96 in 10.0 mi East 9.2 mph - N/A   Partly Cloudy
3:53 AM -9.9 °F -24.9 °F -15.0 °F 78% 29.97 in 10.0 mi East 6.9 mph - N/A   Partly Cloudy
4:53 AM -9.9 °F -26.3 °F -14.1 °F 82% 29.98 in 10.0 mi ENE 8.1 mph - N/A   Partly Cloudy
5:53 AM -9.9 °F -28.6 °F -15.0 °F 78% 29.98 in 10.0 mi ENE 10.4 mph - N/A   Partly Cloudy
6:53 AM -8.0 °F -27.1 °F -13.0 °F 79% 29.99 in 10.0 mi NE 11.5 mph - N/A   Partly Cloudy
7:53 AM -9.9 °F -30.5 °F -16.1 °F 74% 30.01 in 7.0 mi ENE 12.7 mph - N/A   Partly Cloudy
8:53 AM -9.9 °F -30.5 °F -16.1 °F 74% 30.02 in 8.0 mi ENE 12.7 mph - N/A   Partly Cloudy
9:53 AM -13.0 °F -33.4 °F -18.9 °F 75% 30.04 in 10.0 mi ENE 11.5 mph - N/A   Clear
10:53 AM -11.0 °F -29.9 °F -17.0 °F 75% 30.05 in 10.0 mi ENE 10.4 mph - N/A   Clear
11:53 AM -9.9 °F -28.6 °F -17.0 °F 71% 30.06 in 10.0 mi ENE 10.4 mph - N/A   Clear
12:53 PM -7.1 °F -25.9 °F -13.0 °F 75% 30.07 in 10.0 mi NE 11.5 mph - N/A   Clear
1:53 PM -7.1 °F -25.9 °F -13.0 °F 75% 30.06 in 10.0 mi ENE 11.5 mph - N/A   Clear
2:53 PM -6.0 °F -22.6 °F -13.0 °F 72% 30.06 in 10.0 mi NE 9.2 mph - N/A   Clear
3:53 PM -6.0 °F -24.6 °F -13.0 °F 72% 30.05 in 4.0 mi NE 11.5 mph - N/A   Haze
4:53 PM -6.0 °F -26.3 °F -13.0 °F 72% 30.06 in 7.0 mi NE 13.8 mph - N/A   Partly Cloudy
4:59 PM -6.0 °F -27.0 °F -11.9 °F 75% 30.05 in 4.0 mi NE 15.0 mph - 0.00 in Rain Light Freezing Rain
5:16 PM -6.0 °F -27.0 °F -13.0 °F 72% 30.04 in 9.0 mi ENE 15.0 mph - 0.00 in   Mostly Cloudy
5:53 PM -7.1 °F -23.9 °F -13.0 °F 75% 30.05 in 3.0 mi NE 9.2 mph - 0.00 in Snow Light Snow
6:53 PM -4.0 °F -23.0 °F -11.0 °F 72% 30.04 in 6.0 mi NE 12.7 mph - 0.00 in   Haze
7:53 PM -6.0 °F -27.7 °F -13.0 °F 72% 30.03 in 7.0 mi NNE 16.1 mph - 0.00 in   Scattered Clouds
8:53 PM -9.0 °F -30.2 °F -16.1 °F 71% 30.02 in 10.0 mi NNE 13.8 mph - N/A   Clear
9:15 PM -9.9 °F -30.5 °F -16.1 °F 74% 30.00 in 3.0 mi NNE 12.7 mph - 0.00 in Snow Light Snow
9:17 PM -9.9 °F -31.3 °F -16.1 °F 74% 30.01 in 3.0 mi NE 13.8 mph - 0.00 in Snow Light Snow
9:24 PM -9.9 °F -32.1 °F -17.0 °F 71% 30.01 in 2.0 mi NE 15.0 mph - 0.00 in Snow Light Snow
9:36 PM -9.9 °F -32.8 °F -17.0 °F 71% 30.00 in 3.0 mi NE 16.1 mph - 0.00 in Snow Light Snow
9:50 PM -11.2 °F -34.4 °F -16.6 °F 77% 30.00 in 8.0 mi NE 16.1 mph - 0.00 in Snow Light Snow
9:53 PM -11.0 °F -33.5 °F -17.0 °F 75% 30.01 in 8.0 mi NE 15.0 mph - 0.00 in   Partly Cloudy
10:53 PM -11.0 °F -32.7 °F -18.0 °F 71% 30.00 in 7.0 mi NE 13.8 mph - N/A   Clear
11:53 PM -11.0 °F -32.7 °F -18.0 °F 71% 30.00 in 5.0 mi NE 13.8 mph - N/A   Haze